Laramie, WY

3:11 PM MDT on April 26, 2017 (GMT -0600)
Laramie Regional

Weather History for KLAR - June, 2012

Change the Weather History Date:

Friday, June 29, 2012

  Actual Average Record
Temperature  
Mean Temperature 72 °F 61 °F  
Max Temperature 91 °F 78 °F 91 °F (1990)
Min Temperature 52 °F 45 °F 38 °F (1967)
Degree Days  
Heating Degree Days 0 4  
Month to date heating degree days 82 236  
Since 1 June heating degree days 82 236  
Since 1 July heating degree days 8152 8825  
Cooling Degree Days 7 1  
Month to date cooling degree days 56 3  
Year to date cooling degree days 56 3  
Since 1 June cooling degree days 56 3  
Growing Degree Days 22 (Base 50)    
Moisture  
Dew Point 35 °F    
Average Humidity 37    
Maximum Humidity 64    
Minimum Humidity 10    
Precipitation  
Precipitation T in 0.04 in 0.40 in (1987)
Month to date precipitation 0.24 1.50  
Year to date precipitation 2.60 5.45  
Sea Level Pressure  
Sea Level Pressure 29.86 in    
Wind  
Wind Speed 13 mph (SW)    
Max Wind Speed 40 mph    
Max Gust Speed 53 mph    
Visibility 10 miles    
Events      
T = Trace of Precipitation, MM = Missing Value Source: NWS Daily Summary

Daily Weather History Graph

Daily Weather History Graph

Search for Another Location

Airport or City:

Trip Planner

Search our weather history database for the weather conditions in past years. The results will help you decide how hot, cold, wet, or windy it might be!

Date:

Astronomy

Jun. 29, 2012 Rise Set
Actual Time 5:32 AM MDT 8:39 PM MDT
Civil Twilight 4:58 AM MDT 9:13 PM MDT
Nautical Twilight 4:15 AM MDT 9:56 PM MDT
Astronomical Twilight 3:24 AM MDT 10:47 PM MDT
Moon 4:27 PM MDT (6/29) 1:46 AM MDT (6/29)
Length of Visible Light 16h 14m
Length of Day
15h 07m
Waxing Gibbous, 78% of the Moon is Illuminated
Jun 29
Waxing Gibbous
Jul 3
Full
Jul 10
Last Quarter
Jul 18
New
Jul 26
First Quarter

Hourly Weather History & Observations

Time (MDT) Temp. Dew Point Humidity Pressure Visibility Wind Dir Wind Speed Gust Speed Precip Events Conditions
12:53 AM 61.0 °F 41.0 °F 48% 29.86 in 10.0 mi WSW 9.2 mph - N/A   Clear
1:53 AM 55.0 °F 42.1 °F 62% 29.89 in 10.0 mi SSE 8.1 mph - N/A   Clear
2:53 AM 55.0 °F 41.0 °F 59% 29.88 in 10.0 mi SE 5.8 mph - N/A   Partly Cloudy
3:53 AM 54.0 °F 39.9 °F 59% 29.89 in 10.0 mi SE 8.1 mph - N/A   Clear
4:53 AM 54.0 °F 39.9 °F 59% 29.91 in 10.0 mi SE 9.2 mph - N/A   Partly Cloudy
5:53 AM 54.0 °F 41.0 °F 62% 29.94 in 10.0 mi SSE 8.1 mph - N/A   Mostly Cloudy
6:53 AM 59.0 °F 42.1 °F 53% 29.94 in 10.0 mi South 8.1 mph - N/A   Scattered Clouds
7:53 AM 66.0 °F 42.1 °F 42% 29.93 in 10.0 mi South 8.1 mph - N/A   Clear
8:53 AM 73.9 °F 44.1 °F 34% 29.91 in 10.0 mi SSW 8.1 mph - N/A   Clear
9:53 AM 79.0 °F 34.0 °F 20% 29.89 in 10.0 mi WSW 6.9 mph - N/A   Clear
10:53 AM 82.9 °F 30.9 °F 15% 29.88 in 10.0 mi WSW 10.4 mph 20.7 mph N/A   Clear
11:53 AM 84.9 °F 30.9 °F 14% 29.86 in 10.0 mi West 19.6 mph 26.5 mph N/A   Partly Cloudy
12:53 PM 87.1 °F 28.9 °F 12% 29.83 in 10.0 mi West 13.8 mph 28.8 mph N/A   Partly Cloudy
1:53 PM 89.1 °F 28.0 °F 11% 29.83 in 10.0 mi West 18.4 mph 28.8 mph N/A   Partly Cloudy
2:53 PM 89.1 °F 27.0 °F 11% 29.81 in 10.0 mi WSW 17.3 mph 25.3 mph N/A   Clear
3:53 PM 88.0 °F 28.0 °F 12% 29.81 in 10.0 mi West 15.0 mph 24.2 mph N/A   Partly Cloudy
4:53 PM 89.1 °F 27.0 °F 11% 29.77 in 10.0 mi WNW 16.1 mph 25.3 mph N/A   Clear
5:53 PM 84.0 °F 24.1 °F 11% 29.80 in 10.0 mi SSW 25.3 mph 31.1 mph N/A   Clear
6:53 PM 78.1 °F 30.0 °F 17% 29.79 in 10.0 mi South 13.8 mph - 0.00 in   Clear
7:53 PM 73.9 °F 34.0 °F 23% 29.78 in 10.0 mi SSW 11.5 mph - N/A   Clear
8:53 PM 75.9 °F 32.0 °F 20% 29.77 in 10.0 mi WSW 35.7 mph 52.9 mph N/A   Clear
9:01 PM 75.2 °F 32.0 °F 21% 30.17 in 10.0 mi West 28.8 mph 47.2 mph N/A   Scattered Clouds
9:53 PM 72.0 °F 32.0 °F 23% 29.80 in 10.0 mi SW 16.1 mph - N/A   Clear
10:53 PM 69.1 °F 36.0 °F 30% 29.78 in 10.0 mi South 16.1 mph 23.0 mph N/A   Partly Cloudy
11:53 PM 64.0 °F 36.0 °F 35% 29.79 in 10.0 mi South 9.2 mph - N/A   Clear